When you browse on this site, cookies collect data to enhance your experience and personalize the content and advertising you see.
Visit our Privacy Policy to learn more. By continuing to use the site, you agree to this use of cookies and data.
  • In Lithuania
  • List of Countries
  • For 7 days
  • Water Temperature
  • Satellite Maps
  • Weather Map
  • Weather Widgets
  • user-avatar
    Login

    Hourly Weather Klyuchevskoe

    Today, 11 December, Tuesday

    Time Temperature Precipitation Wind Pressure Humidity
    00:00 +3°C° 0 mm 3 mps 740 mmHg 89%
    01:00 +3°C° 0 mm 3 mps 740 mmHg 90%
    02:00 +3°C° 0 mm 4 mps 740 mmHg 91%
    03:00 +3°C° 0 mm 4 mps 739 mmHg 92%
    04:00 +3°C° 0 mm 4 mps 739 mmHg 92%
    05:00 +3°C° 0 mm 4 mps 739 mmHg 91%
    06:00 +1°C° 0 mm 4 mps 739 mmHg 91%
    07:00 +2°C° 0 mm 5 mps 738 mmHg 91%
    08:00 +2°C° 0 mm 5 mps 738 mmHg 90%
    09:00 +2°C° 0 mm 5 mps 738 mmHg 89%
    10:00 +3°C° 0 mm 6 mps 737 mmHg 87%
    11:00 +4°C° 0 mm 6 mps 737 mmHg 84%
    12:00 +5°C° 0 mm 7 mps 736 mmHg 81%
    13:00 +5°C° 0 mm 7 mps 735 mmHg 81%
    14:00 +5°C° 0 mm 7 mps 735 mmHg 81%
    15:00 +5°C° 0 mm 7 mps 734 mmHg 81%
    16:00 +5°C° 0 mm 6 mps 735 mmHg 83%
    17:00 +6°C° 0 mm 4 mps 735 mmHg 86%
    18:00 +5°C° 0 mm 3 mps 735 mmHg 88%
    19:00 +5°C° 0.3 mm 3 mps 735 mmHg 90%
    20:00 +6°C° 0.3 mm 2 mps 736 mmHg 92%
    21:00 +7°C° 0.3 mm 1 mps 736 mmHg 93%
    22:00 +7°C° 0.5 mm 1 mps 737 mmHg 94%
    23:00 +7°C° 0.5 mm 1 mps 737 mmHg 94%

    Tomorrow, 12 December, Wednesday

    Time Temperature Precipitation Wind Pressure Humidity
    00:00 +7°C° 0.5 mm 1 mps 738 mmHg 94%
    01:00 +7°C° 0 mm 1 mps 738 mmHg 93%
    02:00 +6°C° 0 mm 1 mps 738 mmHg 93%
    03:00 +6°C° 0 mm 1 mps 739 mmHg 93%
    04:00 +6°C° 0 mm 1 mps 739 mmHg 93%
    05:00 +6°C° 0 mm 1 mps 739 mmHg 93%
    06:00 +5°C° 0 mm 2 mps 740 mmHg 93%
    07:00 +5°C° 0 mm 2 mps 740 mmHg 92%
    08:00 +6°C° 0 mm 2 mps 740 mmHg 91%
    09:00 +6°C° 0 mm 2 mps 741 mmHg 90%
    10:00 +7°C° 0.1 mm 2 mps 741 mmHg 85%
    11:00 +8°C° 0.1 mm 2 mps 741 mmHg 79%
    12:00 +9°C° 0.1 mm 3 mps 740 mmHg 73%
    13:00 +9°C° 0.2 mm 2 mps 740 mmHg 74%
    14:00 +9°C° 0.2 mm 2 mps 740 mmHg 74%
    15:00 +10°C° 0.2 mm 1 mps 740 mmHg 74%
    16:00 +9°C° 0.2 mm 1 mps 740 mmHg 77%
    17:00 +9°C° 0.2 mm 1 mps 740 mmHg 80%
    18:00 +7°C° 0.2 mm 2 mps 740 mmHg 84%
    19:00 +7°C° 0.4 mm 2 mps 740 mmHg 85%
    20:00 +7°C° 0.4 mm 2 mps 740 mmHg 87%
    21:00 +6°C° 0.4 mm 2 mps 740 mmHg 89%
    22:00 +6°C° 0.4 mm 2 mps 740 mmHg 89%
    23:00 +6°C° 0.4 mm 2 mps 741 mmHg 89%

    Day after tomorrow, 13 December, Thursday

    Time Temperature Precipitation Wind Pressure Humidity
    00:00 +6°C° 0.4 mm 2 mps 741 mmHg 89%
    01:00 +6°C° 0.6 mm 2 mps 741 mmHg 90%
    02:00 +5°C° 0.6 mm 2 mps 741 mmHg 90%
    03:00 +5°C° 0.6 mm 2 mps 741 mmHg 91%
    04:00 +5°C° 0.7 mm 2 mps 742 mmHg 92%
    05:00 +5°C° 0.7 mm 2 mps 742 mmHg 92%
    06:00 +5°C° 0.7 mm 2 mps 742 mmHg 93%
    07:00 +4°C° 1 mm 2 mps 743 mmHg 93%
    08:00 +4°C° 1 mm 2 mps 743 mmHg 93%
    09:00 +4°C° 1 mm 2 mps 744 mmHg 92%
    10:00 +3°C° 0.6 mm 3 mps 744 mmHg 90%
    11:00 +3°C° 0.6 mm 3 mps 744 mmHg 89%
    12:00 +3°C° 0.6 mm 4 mps 744 mmHg 87%
    13:00 +3°C° 0.1 mm 4 mps 745 mmHg 85%
    14:00 +3°C° 0.1 mm 3 mps 745 mmHg 83%
    15:00 +3°C° 0.1 mm 3 mps 746 mmHg 81%
    16:00 +2°C° 0 mm 3 mps 746 mmHg 82%
    17:00 +3°C° 0 mm 2 mps 747 mmHg 84%
    18:00 +4°C° 0 mm 1 mps 747 mmHg 86%
    19:00 +3°C° 0 mm 1 mps 747 mmHg 87%
    20:00 +3°C° 0 mm 1 mps 748 mmHg 87%
    21:00 +2°C° 0 mm 0 mps 748 mmHg 88%
    22:00 +3°C° 0 mm 1 mps 748 mmHg 88%
    23:00 +2°C° 0 mm 1 mps 748 mmHg 88%

    14 December, Friday

    Time Temperature Precipitation Wind Pressure Humidity
    00:00 +2°C° 0 mm 1 mps 749 mmHg 89%
    01:00 +2°C° 0 mm 1 mps 749 mmHg 87%
    02:00 +2°C° 0 mm 1 mps 749 mmHg 86%
    03:00 +2°C° 0 mm 1 mps 749 mmHg 85%
    04:00 +2°C° 0 mm 1 mps 749 mmHg 84%
    05:00 +2°C° 0 mm 1 mps 749 mmHg 82%
    06:00 +2°C° 0 mm 1 mps 749 mmHg 80%
    07:00 +2°C° 0 mm 1 mps 749 mmHg 78%
    08:00 +2°C° 0 mm 2 mps 749 mmHg 76%
    09:00 +2°C° 0 mm 2 mps 749 mmHg 75%
    10:00 +3°C° 0 mm 2 mps 749 mmHg 71%
    11:00 +4°C° 0 mm 2 mps 748 mmHg 67%
    12:00 +4°C° 0 mm 3 mps 748 mmHg 63%
    13:00 +4°C° 0 mm 3 mps 748 mmHg 64%
    14:00 +4°C° 0 mm 3 mps 748 mmHg 65%
    15:00 +4°C° 0 mm 3 mps 748 mmHg 67%
    16:00 +3°C° 0 mm 3 mps 748 mmHg 70%
    17:00 +2°C° 0 mm 3 mps 748 mmHg 74%
    18:00 +1°C° 0 mm 3 mps 748 mmHg 78%
    19:00 +1°C° 0 mm 3 mps 748 mmHg 79%
    20:00 +1°C° 0 mm 3 mps 748 mmHg 79%
    21:00 +1°C° 0 mm 3 mps 749 mmHg 80%
    22:00 +1°C° 0 mm 3 mps 749 mmHg 81%
    23:00 +1°C° 0 mm 3 mps 749 mmHg 82%

    15 December, Saturday

    Time Temperature Precipitation Wind Pressure Humidity
    00:00 0°C° 0 mm 3 mps 749 mmHg 84%
    01:00 0°C° 0 mm 3 mps 749 mmHg 84%
    02:00 0°C° 0 mm 3 mps 749 mmHg 84%
    03:00 0°C° 0 mm 3 mps 749 mmHg 85%
    04:00 0°C° 0 mm 3 mps 749 mmHg 85%
    05:00 0°C° 0 mm 3 mps 749 mmHg 86%
    06:00 0°C° 0 mm 3 mps 749 mmHg 86%
    07:00 0°C° 0 mm 3 mps 749 mmHg 85%
    08:00 0°C° 0 mm 3 mps 749 mmHg 84%
    09:00 0°C° 0 mm 3 mps 750 mmHg 83%
    10:00 +1°C° 0 mm 3 mps 750 mmHg 79%
    11:00 +3°C° 0 mm 2 mps 750 mmHg 76%
    12:00 +4°C° 0 mm 2 mps 750 mmHg 72%
    13:00 +4°C° 0.1 mm 2 mps 750 mmHg 74%
    14:00 +5°C° 0.1 mm 1 mps 750 mmHg 75%
    15:00 +5°C° 0.1 mm 1 mps 750 mmHg 77%
    16:00 +4°C° 0.1 mm 2 mps 750 mmHg 78%
    17:00 +3°C° 0.1 mm 2 mps 751 mmHg 80%
    18:00 +3°C° 0.1 mm 2 mps 751 mmHg 81%
    19:00 +3°C° 0 mm 2 mps 751 mmHg 82%
    20:00 +2°C° 0 mm 2 mps 751 mmHg 83%
    21:00 +2°C° 0 mm 2 mps 751 mmHg 84%
    22:00 +2°C° 0.1 mm 2 mps 751 mmHg 86%
    23:00 +2°C° 0.1 mm 2 mps 752 mmHg 88%

    16 December, Sunday

    Time Temperature Precipitation Wind Pressure Humidity
    00:00 +2°C° 0.1 mm 2 mps 752 mmHg 90%
    01:00 +2°C° 0.2 mm 2 mps 752 mmHg 91%
    02:00 +2°C° 0.2 mm 2 mps 752 mmHg 93%
    03:00 +2°C° 0.2 mm 2 mps 753 mmHg 94%
    04:00 +1°C° 0 mm 2 mps 753 mmHg 95%
    05:00 +1°C° 0 mm 2 mps 753 mmHg 95%
    06:00 -1°C° 0 mm 2 mps 753 mmHg 95%
    07:00 -1°C° 0 mm 2 mps 753 mmHg 93%
    08:00 -1°C° 0 mm 2 mps 754 mmHg 91%
    09:00 -1°C° 0 mm 2 mps 754 mmHg 90%
    10:00 +1°C° 0 mm 2 mps 754 mmHg 86%
    11:00 +1°C° 0 mm 2 mps 754 mmHg 82%
    12:00 +2°C° 0 mm 2 mps 754 mmHg 78%
    13:00 +2°C° 0 mm 2 mps 754 mmHg 79%
    14:00 +2°C° 0 mm 2 mps 754 mmHg 79%
    15:00 +2°C° 0 mm 2 mps 754 mmHg 79%
    16:00 +1°C° 0 mm 2 mps 754 mmHg 82%
    17:00 -1°C° 0 mm 2 mps 754 mmHg 86%
    18:00 +1°C° 0 mm 1 mps 755 mmHg 89%
    19:00 +1°C° 0 mm 1 mps 755 mmHg 90%
    20:00 -2°C° 0 mm 2 mps 755 mmHg 90%
    21:00 -2°C° 0 mm 2 mps 754 mmHg 91%
    22:00 -2°C° 0 mm 2 mps 754 mmHg 90%
    23:00 -2°C° 0 mm 2 mps 754 mmHg 89%
    Show more